Location: Unspecified
(40.7945°N, 0.0000°E)
Time: 08:33:25
(UTC+00:00)

deb Explorer IX - Pass Details

Date: 23 January 2021
Orbit: 537 x 1103 km, 38.8° (Epoch: 23 February)

Event Time Altitude Azimuth Distance (km) Brightness Sun altitude
Rises 20:15:05 0° 267° (W) 3,488 ? -35.5°
Reaches altitude 10° 20:17:50 10° 266° (W) 2,453 ? -36.0°
Enters shadow 20:20:45 29° 261° (W) 1,403 ? -36.6°
